Flag Weather past 2 weeks in Ahlen, North Rhine-Westphalia, Germany

Now
54 °F

Sunny.


Feels Like: 52 °F
Forecast: 45 / 57 °F
Wind: 6 mph from South

Location: Dortmund / Wickede

Current Time: Nov 22, 2014 at 3:40:59 PM

Latest Report: Nov 22, 2014 at 3:20 PM


Visibility: 10 mi

Pressure: 30.07 "Hg

Humidity: 67%

Dew point: 43 °F

Location of AhlenLocation

Historic Weather in Ahlen — Graph

°F

Ahlen temperature yesterday

Maximum temperature yesterday: 46 °F (at 1:20 PM)
Minimum temperature yesterday: 32 °F (at 5:20 AM)
Average temperature yesterday: 39 °F

Past Weeks' High & Low Weather Summary

 TemperatureHumidityPressure
High57 °F (Nov 9, 1:20 PM)93% (Nov 11, 7:50 AM)30.33 "Hg (Nov 11, 7:50 AM)
Low32 °F (Nov 21, 5:20 AM)51% (Nov 9, 2:20 PM)29.50 "Hg (Nov 16, 12:50 PM)
Average47 °F80%29.84 "Hg
* Reported Nov 7 2:20 PM — Nov 22 2:20 PM, Ahlen, Weather by CustomWeather, © 2014

Note: Actual official high and low records may vary slightly from our data, if they occured in-between our weather recording intervals... More about our weather records

Advertising

Ahlen weather history for previous 24 hours

 ConditionsComfort  
Time TempWeatherWind HumidityBarometerVisibility
2:20 PM
Nov 22
54 °FSunny.7 mph67%30.07 "Hg10 mi
1:50 PM55 °FSunny.6 mph63%30.07 "Hg10 mi
1:20 PM55 °FSunny.7 mph63%30.07 "Hg10 mi
12:50 PM54 °FPassing clouds.6 mph63%30.07 "HgN/A
12:20 PM54 °FSunny.12 mph63%30.07 "Hg10 mi
11:50 AM52 °FSunny.10 mph67%30.07 "Hg10 mi
11:20 AM50 °FSunny.8 mph71%30.09 "Hg10 mi
10:50 AM48 °FSunny.9 mph71%30.09 "Hg10 mi
10:20 AM46 °FSunny.13 mph71%30.09 "Hg10 mi
9:50 AM45 °FSunny.12 mph76%30.09 "Hg10 mi
9:20 AM43 °FSunny.8 mph81%30.09 "Hg10 mi
8:50 AM39 °FSunny.1 mph87%30.09 "Hg10 mi
8:20 AM36 °FSunny.1 mph87%30.09 "Hg10 mi
7:50 AM36 °FClear.2 mph87%30.07 "Hg10 mi
7:20 AM36 °FClear.2 mph87%30.07 "Hg10 mi
6:50 AM37 °FPassing clouds.5 mph87%30.07 "HgN/A
6:20 AM37 °FClear.7 mph87%30.07 "Hg10 mi
5:50 AM36 °FClear.5 mph93%30.09 "Hg10 mi
5:20 AM36 °FClear.6 mph93%30.09 "Hg10 mi
10:50 PM
Nov 21
34 °FClear.5 mph87%30.12 "Hg10 mi
10:20 PM36 °FClear.6 mph87%30.12 "Hg10 mi
9:50 PM36 °FClear.8 mph87%30.15 "Hg10 mi
9:20 PM37 °FClear.6 mph81%30.15 "Hg10 mi
8:50 PM37 °FClear.7 mph87%30.15 "Hg10 mi
8:20 PM37 °FClear.8 mph81%30.15 "Hg10 mi
7:50 PM37 °FClear.7 mph81%30.15 "Hg10 mi
7:20 PM39 °FClear.7 mph81%30.15 "Hg10 mi
6:50 PM39 °FClear.8 mph81%30.15 "Hg10 mi
6:20 PM39 °FClear.7 mph81%30.15 "Hg10 mi
5:50 PM41 °FClear.8 mph81%30.15 "Hg10 mi
5:20 PM41 °FClear.7 mph81%30.15 "Hg10 mi
4:20 PM43 °FPassing clouds.7 mph76%30.15 "HgN/A
3:50 PM45 °FSunny.8 mph71%30.15 "Hg10 mi
3:20 PM45 °FSunny.10 mph76%30.15 "Hg10 mi
Weather by CustomWeather, © 2014

See weather overviewHow to use our weather pages